Columbia, SC

3:36 AM EDT on October 19, 2017 (GMT -0400)
Columbia Metro

Weather History for KCAE - November, 2012

Change the Weather History Date:

Thursday, November 1, 2012

  Actual Average Record
Temperature  
Mean Temperature 50 °F 59 °F  
Max Temperature 67 °F 72 °F 89 °F (1961)
Min Temperature 32 °F 46 °F 29 °F (1954)
Degree Days  
Heating Degree Days 15 7  
Month to date heating degree days 15 7  
Since 1 July heating degree days 95 127  
Cooling Degree Days 0 1  
Month to date cooling degree days 0 1  
Year to date cooling degree days 2505 2153  
Moisture  
Dew Point 24 °F    
Average Humidity 46    
Maximum Humidity 75    
Minimum Humidity 16    
Precipitation  
Precipitation 0.00 in 0.09 in 1.15 in (2013)
Month to date precipitation 0.00 0.09  
Year to date precipitation 37.63 38.72  
Sea Level Pressure  
Sea Level Pressure 29.86 in    
Wind  
Wind Speed 8 mph (West)    
Max Wind Speed 24 mph    
Max Gust Speed 30 mph    
Visibility 10 miles    
Events      
T = Trace of Precipitation, MM = Missing Value Source: NWS Daily Summary

Daily Weather History Graph

Daily Weather History Graph

Search for Another Location

Airport or City:

Trip Planner

Search our weather history database for the weather conditions in past years. The results will help you decide how hot, cold, wet, or windy it might be!

Date:

Astronomy

Nov. 01, 2012 Rise Set
Actual Time 7:44 AM EDT 6:31 PM EDT
Civil Twilight 7:18 AM EDT 6:57 PM EDT
Nautical Twilight 6:48 AM EDT 7:26 PM EDT
Astronomical Twilight 6:19 AM EDT 7:55 PM EDT
Moon 8:33 PM EDT (11/1) 10:09 AM EDT (11/1)
Length of Visible Light 11h 38m
Length of Day
10h 46m
Waning Gibbous, 93% of the Moon is Illuminated
Nov 1
Waning Gibbous
Nov 6
Last Quarter
Nov 13
New
Nov 20
First Quarter
Nov 28
Full

Hourly Weather History & Observations

Time (EDT) Temp. Windchill Dew Point Humidity Pressure Visibility Wind Dir Wind Speed Gust Speed Precip Events Conditions
12:56 AM 45.0 °F - 26.1 °F 48% 29.82 in 10.0 mi Calm Calm - N/A   Clear
1:56 AM 46.0 °F - 26.1 °F 46% 29.82 in 10.0 mi Calm Calm - N/A   Partly Cloudy
2:56 AM 41.0 °F 39.0 °F 28.9 °F 62% 29.82 in 10.0 mi South 3.5 mph - N/A   Partly Cloudy
3:56 AM 39.0 °F - 26.1 °F 60% 29.82 in 10.0 mi Calm Calm - N/A   Partly Cloudy
4:56 AM 36.0 °F 31.1 °F 26.1 °F 67% 29.83 in 10.0 mi WSW 5.8 mph - N/A   Clear
5:56 AM 37.0 °F 31.6 °F 25.0 °F 62% 29.83 in 10.0 mi West 6.9 mph - N/A   Clear
6:56 AM 34.0 °F 28.0 °F 25.0 °F 70% 29.85 in 10.0 mi WSW 6.9 mph - N/A   Clear
7:56 AM 33.1 °F 28.7 °F 26.1 °F 75% 29.87 in 10.0 mi WSW 4.6 mph - N/A   Partly Cloudy
8:56 AM 42.1 °F 37.7 °F 28.0 °F 58% 29.88 in 10.0 mi West 6.9 mph - N/A   Partly Cloudy
9:56 AM 52.0 °F - 26.1 °F 37% 29.89 in 10.0 mi WNW 10.4 mph - N/A   Partly Cloudy
10:56 AM 55.9 °F - 27.0 °F 33% 29.89 in 10.0 mi West 10.4 mph - N/A   Partly Cloudy
11:56 AM 57.9 °F - 21.9 °F 25% 29.89 in 10.0 mi WNW 12.7 mph - N/A   Clear
12:56 PM 61.0 °F - 21.0 °F 21% 29.86 in 10.0 mi WNW 11.5 mph 21.9 mph N/A   Clear
1:56 PM 63.0 °F - 18.0 °F 18% 29.83 in 10.0 mi NW 11.5 mph - 0.00 in   Clear
2:56 PM 64.9 °F - 19.0 °F 17% 29.81 in 10.0 mi WNW 15.0 mph 24.2 mph N/A   Clear
3:56 PM 66.0 °F - 19.0 °F 17% 29.82 in 10.0 mi WNW 17.3 mph 23.0 mph N/A   Clear
4:56 PM 64.9 °F - 18.0 °F 16% 29.83 in 10.0 mi WNW 13.8 mph 21.9 mph N/A   Clear
5:56 PM 63.0 °F - 19.0 °F 18% 29.83 in 10.0 mi West 9.2 mph - N/A   Partly Cloudy
6:56 PM 55.0 °F - 23.0 °F 29% 29.86 in 10.0 mi West 6.9 mph - N/A   Partly Cloudy
7:56 PM 48.9 °F - 30.0 °F 48% 29.87 in 10.0 mi Calm Calm - N/A   Clear
8:56 PM 46.0 °F 43.9 °F 28.9 °F 51% 29.88 in 10.0 mi West 4.6 mph - N/A   Partly Cloudy
9:56 PM 50.0 °F - 24.1 °F 36% 29.90 in 10.0 mi West 4.6 mph - N/A   Clear
10:56 PM 51.1 °F - 24.1 °F 35% 29.92 in 10.0 mi West 10.4 mph - N/A   Clear
11:56 PM 54.0 °F - 19.9 °F 26% 29.94 in 10.0 mi WNW 6.9 mph - N/A   Clear